STARLINK-32943, 63023

Orbit data source: Space-Track

STARLINK-32943, 63023 is a payload satellite owned by SpaceX/Seattle (US) in LEO that was launched on Sat, 15 Feb 2025 UTC via an FALCON 9 launch vehicle from the Air Force Eastern Test Range (AFETR). Payload-class satellites include a variety of spacecraft equipped with specific instruments for various scientific and technological missions. These include communications satellites like Starlink; space stations such as the ISS; scientific satellites like the Hubble; Earth observation satellites from companies like Planet Labs, Umbra, and HawkEye 360; GPS; miniature CubeSats for education and research; and military/defense satellites.

Loading next visibility...
Identifier
63023, 2025-032U
Orbit
LEO
Country
Flag of USUS
Related business
Manufacturer
SpaceX/Seattle
Mission
Operational Commercial Communications
Bus & Motor
STARLINK V2M, Unknown motor
Mass
730 kg wet, ~700 kg dry
Launch date (UTC)
2025-02-15 (8 months ago)
Launch vehicle
FALCON 9
Launch site
Air Force Eastern Test Range (AFETR)
Object type
Payload
Rocket body
Debris
Shape & HBR
Box + 2 Pan, 17.7 m
Radar Cross Section
33.884 m², Large (>1 m²)

Expand to show TLE details & history
Last TLE update: 15 hours ago

TLE from 15 hours ago
0 STARLINK-32943
1 63023U 25032U   25301.55497747  .00031474  00000-0  11469-2 0  9997
2 63023  43.0042   2.1099 0001497 266.1314  93.9366 15.27622827 40411
Epoch: 2025-10-28T13:19Z
TLE epoch observation values (Epoch: 2025-10-28T13:19:10.053Z)
Latitude
-0.00005°
Longitude
125.17716°
Altitude
482.767 km
Speed
7.626 km/s
True Right ascension
00h 08m 26s
True Declination
0° 00' 00"
Sunlit
Object was in full shadow at epoch
Visualization orbit readout
Latitude
Unknown
Longitude
Unknown
Altitude
Unknown
Speed
Unknown
Apparent Right ascension
Unknown
Apparent Declination
Unknown
Sunlit
N/A
Visualization observer readout
Local Sidereal Time
00:08:05
Azimuth
Unknown
Elevation
Unknown
Doppler factor
Unknown
Orbital elements
Apogee altitude
485.893 km
Perigee altitude
483.838 km
Semi-major axis
6,863.002 km
Eccentricity
0.00015
Inclination
43.0042°
RAAN
2.1099°
Arg. of periapsis
266.1314°
True anomaly
93.95371°
Mean anomaly
93.9366°
Eccentric anomaly
93.94516°
Mean motion
3.81744 °/min
Orbital period
94.3 mins
BSTAR
0.0011469
Loading maneuver chart data...
Computing Atmospheric mass density...
Loading historical data...
Loading historical data...
Loading historical data...
Loading historical data...
Loading historical data...
Loading historical data...
Loading historical data...

Documentation

Showing up to 5 results
|